Flag for Puerto Rico Weather past 2 weeks in San Juan, Puerto Rico

Now
82 °F

Light rain. Partly cloudy.


Feels Like: 89 °F
Forecast: 80 / 85 °F
Wind: 22 mph from East

Location: Luis Munoz Marin

Current Time: Aug 27, 2015 at 10:33:56 PM

Latest Report: Aug 27, 2015 at 9:56 PM


Visibility: 6 mi

Pressure: 29.90 "Hg

Humidity: 79%

Dew point: 75 °F

Location of San JuanLocation

Historic Weather in San Juan — Graph

°F

San Juan temperature yesterday

Maximum temperature yesterday: 85 °F (at 11:56 AM)
Minimum temperature yesterday: 77 °F (at 3:56 AM)
Average temperature yesterday: 81 °F

Past Weeks' High & Low Weather Summary

 TemperatureHumidityPressure
High91 °F (Aug 14, 12:56 PM)100% (Aug 16, 2:56 PM)30.06 "Hg (Aug 16, 2:56 PM)
Low74 °F (Aug 17, 5:56 AM)57% (Aug 14, 1:56 PM)29.84 "Hg (Aug 27, 4:56 PM)
Average82 °F85%29.97 "Hg
* Reported Aug 12 8:56 PM — Aug 27 8:56 PM, San Juan, Weather by CustomWeather, © 2015

Note: Actual official high and low records may vary slightly from our data, if they occured in-between our weather recording intervals... More about our weather records

Advertising

San Juan weather history for previous 24 hours

 ConditionsComfort  
Time TempWeatherWind HumidityBarometerVisibility
8:56 PM
Thu, Aug 27
81 °FPartly cloudy.15 mph82%29.89 "Hg10 mi
7:56 PM80 °FPartly cloudy.14 mph87%29.87 "Hg10 mi
6:56 PM83 °FBroken clouds.20 mph77%29.85 "Hg10 mi
5:56 PM84 °FScattered clouds.17 mph74%29.84 "Hg10 mi
4:56 PM84 °FBroken clouds.12 mph80%29.84 "Hg10 mi
3:56 PM87 °FScattered clouds.20 mph69%29.84 "Hg10 mi
2:56 PM88 °FScattered clouds.20 mph67%29.84 "Hg10 mi
1:56 PM86 °FBroken clouds.16 mph75%29.87 "Hg10 mi
12:56 PM86 °FScattered clouds.23 mph75%29.89 "Hg10 mi
11:56 AM86 °FScattered clouds.15 mph75%29.91 "Hg10 mi
10:56 AM86 °FScattered clouds.16 mph77%29.93 "Hg10 mi
9:56 AM84 °FScattered clouds.10 mph83%29.94 "Hg10 mi
8:56 AM79 °FBroken clouds.12 mph97%29.93 "Hg10 mi
8:01 AM77 °FLight rain. Broken clouds.13 mph100%29.92 "Hg7 mi
6:56 AM80 °FPassing clouds.13 mph96%29.89 "Hg10 mi
5:56 AM79 °FPassing clouds.14 mph100%29.89 "Hg10 mi
4:56 AM80 °FPartly cloudy.13 mph96%29.89 "Hg10 mi
3:56 AM79 °FLight rain. Fog.10 mph100%29.89 "Hg5 mi
2:56 AM81 °FPartly cloudy.7 mph94%29.91 "Hg10 mi
1:56 AM81 °FPassing clouds.8 mph91%29.93 "Hg10 mi
12:56 AM81 °FPassing clouds.10 mph94%29.94 "Hg10 mi
11:56 PM
Wed, Aug 26
81 °FPassing clouds.8 mph94%29.96 "Hg10 mi
10:56 PM81 °FPartly cloudy.8 mph94%29.97 "Hg10 mi
Weather by CustomWeather, © 2015

See weather overviewHow to use our weather pages